• In Kazakhstan
  • List of Countries
  • For 7 days
  • Water Temperature
  • Satellite Maps
  • Weather Map
  • News
  • Weather Widgets
  • user-avatar
    Login

    Hourly Weather Canberra

    Today, 25 September, Monday

    Time Temperature Precipitation Wind Pressure Humidity
    00:00 +10°C° 0 mm 3 mps 701 mmHg 56%
    01:00 +9°C° 0 mm 3 mps 701 mmHg 55%
    02:00 +9°C° 0 mm 3 mps 701 mmHg 58%
    03:00 +7°C° 0 mm 4 mps 701 mmHg 61%
    04:00 +8°C° 0 mm 3 mps 701 mmHg 63%
    05:00 +7°C° 0 mm 4 mps 701 mmHg 64%
    06:00 +7°C° 0 mm 4 mps 702 mmHg 65%
    07:00 +7°C° 0 mm 5 mps 702 mmHg 66%
    08:00 +9°C° 0 mm 5 mps 702 mmHg 61%
    09:00 +11°C° 0 mm 6 mps 703 mmHg 56%
    10:00 +13°C° 0 mm 6 mps 703 mmHg 50%
    11:00 +14°C° 0 mm 7 mps 703 mmHg 49%
    12:00 +14°C° 0 mm 7 mps 703 mmHg 48%
    13:00 +15°C° 0 mm 7 mps 703 mmHg 47%
    14:00 +14°C° 0 mm 6 mps 703 mmHg 49%
    15:00 +14°C° 0 mm 6 mps 703 mmHg 51%
    16:00 +14°C° 0 mm 6 mps 703 mmHg 54%
    17:00 +12°C° 0 mm 5 mps 704 mmHg 60%
    18:00 +10°C° 0 mm 4 mps 704 mmHg 67%
    19:00 +9°C° 0 mm 3 mps 705 mmHg 74%
    20:00 +8°C° 0 mm 3 mps 706 mmHg 75%
    21:00 +8°C° 0 mm 2 mps 706 mmHg 77%
    22:00 +7°C° 0 mm 2 mps 707 mmHg 78%
    23:00 +7°C° 0 mm 2 mps 707 mmHg 79%

    Tomorrow, 26 September, Tuesday

    Time Temperature Precipitation Wind Pressure Humidity
    00:00 +6°C° 0 mm 2 mps 707 mmHg 80%
    01:00 +6°C° 0 mm 2 mps 707 mmHg 81%
    02:00 +5°C° 0 mm 2 mps 707 mmHg 83%
    03:00 +5°C° 0 mm 2 mps 707 mmHg 84%
    04:00 +5°C° 0 mm 1 mps 707 mmHg 85%
    05:00 +5°C° 0 mm 1 mps 708 mmHg 82%
    06:00 +6°C° 0 mm 1 mps 708 mmHg 78%
    07:00 +7°C° 0 mm 1 mps 709 mmHg 74%
    08:00 +10°C° 0 mm 1 mps 709 mmHg 60%
    09:00 +13°C° 0 mm 1 mps 709 mmHg 45%
    10:00 +16°C° 0 mm 2 mps 710 mmHg 31%
    11:00 +17°C° 0 mm 2 mps 710 mmHg 29%
    12:00 +18°C° 0 mm 3 mps 709 mmHg 28%
    13:00 +19°C° 0 mm 3 mps 709 mmHg 26%
    14:00 +19°C° 0 mm 3 mps 709 mmHg 29%
    15:00 +18°C° 0 mm 3 mps 709 mmHg 33%
    16:00 +18°C° 0 mm 3 mps 709 mmHg 36%
    17:00 +14°C° 0 mm 3 mps 709 mmHg 47%
    18:00 +10°C° 0 mm 2 mps 709 mmHg 59%
    19:00 +8°C° 0 mm 1 mps 709 mmHg 71%
    20:00 +7°C° 0 mm 1 mps 709 mmHg 76%
    21:00 +6°C° 0 mm 1 mps 709 mmHg 81%
    22:00 +5°C° 0 mm 1 mps 710 mmHg 86%
    23:00 +5°C° 0 mm 1 mps 709 mmHg 88%

    Day after tomorrow, 27 September, Wednesday

    Time Temperature Precipitation Wind Pressure Humidity
    00:00 +5°C° 0 mm 1 mps 709 mmHg 90%
    01:00 +5°C° 0 mm 1 mps 709 mmHg 92%
    02:00 +5°C° 0 mm 1 mps 709 mmHg 91%
    03:00 +5°C° 0 mm 1 mps 708 mmHg 91%
    04:00 +6°C° 0 mm 1 mps 708 mmHg 91%
    05:00 +7°C° 0 mm 1 mps 708 mmHg 88%
    06:00 +8°C° 0 mm 1 mps 708 mmHg 86%
    07:00 +8°C° 0 mm 1 mps 709 mmHg 83%
    08:00 +12°C° 0 mm 2 mps 708 mmHg 71%
    09:00 +15°C° 0 mm 2 mps 708 mmHg 59%
    10:00 +19°C° 0 mm 3 mps 707 mmHg 47%
    11:00 +20°C° 0 mm 3 mps 707 mmHg 47%
    12:00 +21°C° 0 mm 2 mps 706 mmHg 47%
    13:00 +23°C° 0 mm 2 mps 706 mmHg 47%
    14:00 +23°C° 0.1 mm 2 mps 705 mmHg 51%
    15:00 +23°C° 0.1 mm 2 mps 704 mmHg 55%
    16:00 +21°C° 0.1 mm 2 mps 703 mmHg 59%
    17:00 +19°C° 0.4 mm 2 mps 703 mmHg 70%
    18:00 +18°C° 0.4 mm 1 mps 703 mmHg 81%
    19:00 +15°C° 0.4 mm 1 mps 703 mmHg 91%
    20:00 +15°C° 0.7 mm 2 mps 703 mmHg 92%
    21:00 +14°C° 0.7 mm 2 mps 704 mmHg 93%
    22:00 +14°C° 0.7 mm 2 mps 704 mmHg 94%
    23:00 +12°C° 1.2 mm 3 mps 703 mmHg 94%

    28 September, Thursday

    Time Temperature Precipitation Wind Pressure Humidity
    00:00 +12°C° 1.2 mm 4 mps 703 mmHg 93%
    01:00 +10°C° 1.2 mm 5 mps 702 mmHg 93%
    02:00 +10°C° 0.3 mm 5 mps 702 mmHg 93%
    03:00 +11°C° 0.3 mm 4 mps 702 mmHg 93%
    04:00 +11°C° 0.3 mm 4 mps 702 mmHg 93%
    05:00 +10°C° 0.1 mm 4 mps 702 mmHg 93%
    06:00 +9°C° 0.1 mm 5 mps 703 mmHg 92%
    07:00 +9°C° 0.1 mm 5 mps 704 mmHg 91%
    08:00 +10°C° 0 mm 5 mps 704 mmHg 83%
    09:00 +11°C° 0 mm 6 mps 704 mmHg 76%
    10:00 +12°C° 0 mm 7 mps 705 mmHg 68%
    11:00 +12°C° 0 mm 7 mps 705 mmHg 65%
    12:00 +14°C° 0 mm 7 mps 704 mmHg 62%
    13:00 +15°C° 0 mm 7 mps 704 mmHg 59%
    14:00 +14°C° 0 mm 6 mps 704 mmHg 60%
    15:00 +14°C° 0 mm 6 mps 704 mmHg 62%
    16:00 +14°C° 0 mm 5 mps 704 mmHg 64%
    17:00 +12°C° 0 mm 4 mps 705 mmHg 70%
    18:00 +11°C° 0 mm 3 mps 705 mmHg 77%
    19:00 +9°C° 0 mm 2 mps 706 mmHg 84%
    20:00 +9°C° 0 mm 2 mps 706 mmHg 87%
    21:00 +8°C° 0 mm 2 mps 706 mmHg 89%
    22:00 +7°C° 0 mm 2 mps 706 mmHg 92%
    23:00 +7°C° 0 mm 2 mps 706 mmHg 91%

    29 September, Friday

    Time Temperature Precipitation Wind Pressure Humidity
    00:00 +7°C° 0 mm 2 mps 706 mmHg 90%
    01:00 +7°C° 0 mm 2 mps 706 mmHg 89%
    02:00 +7°C° 0 mm 2 mps 706 mmHg 89%
    03:00 +7°C° 0 mm 3 mps 706 mmHg 88%
    04:00 +5°C° 0 mm 3 mps 706 mmHg 87%
    05:00 +5°C° 0 mm 3 mps 707 mmHg 84%
    06:00 +7°C° 0 mm 3 mps 707 mmHg 81%
    07:00 +6°C° 0 mm 4 mps 708 mmHg 78%
    08:00 +8°C° 0 mm 4 mps 708 mmHg 67%
    09:00 +10°C° 0 mm 5 mps 708 mmHg 57%
    10:00 +11°C° 0 mm 6 mps 708 mmHg 46%
    11:00 +13°C° 0 mm 6 mps 708 mmHg 45%
    12:00 +14°C° 0 mm 6 mps 708 mmHg 43%
    13:00 +15°C° 0 mm 6 mps 707 mmHg 42%
    14:00 +14°C° 0 mm 6 mps 707 mmHg 44%
    15:00 +14°C° 0 mm 6 mps 707 mmHg 46%
    16:00 +13°C° 0 mm 6 mps 706 mmHg 48%
    17:00 +12°C° 0 mm 5 mps 707 mmHg 55%
    18:00 +10°C° 0 mm 4 mps 707 mmHg 61%
    19:00 +8°C° 0 mm 3 mps 707 mmHg 68%
    20:00 +8°C° 0 mm 3 mps 707 mmHg 67%
    21:00 +8°C° 0 mm 3 mps 708 mmHg 67%
    22:00 +7°C° 0 mm 4 mps 708 mmHg 66%
    23:00 +7°C° 0 mm 4 mps 707 mmHg 65%

    30 September, Saturday

    Time Temperature Precipitation Wind Pressure Humidity
    00:00 +7°C° 0 mm 5 mps 707 mmHg 64%
    01:00 +8°C° 0 mm 5 mps 707 mmHg 63%
    02:00 +7°C° 0 mm 6 mps 707 mmHg 65%
    03:00 +6°C° 0 mm 7 mps 707 mmHg 67%
    04:00 +6°C° 0 mm 7 mps 707 mmHg 69%
    05:00 +6°C° 0 mm 7 mps 708 mmHg 68%
    06:00 +5°C° 0 mm 7 mps 708 mmHg 67%
    07:00 +5°C° 0 mm 7 mps 709 mmHg 66%
    08:00 +8°C° 0 mm 7 mps 710 mmHg 59%
    09:00 +9°C° 0 mm 7 mps 710 mmHg 52%
    10:00 +11°C° 0 mm 7 mps 711 mmHg 45%
    11:00 +13°C° 0 mm 6 mps 711 mmHg 41%
    12:00 +14°C° 0 mm 6 mps 711 mmHg 37%
    13:00 +16°C° 0 mm 6 mps 710 mmHg 34%
    14:00 +15°C° 0 mm 6 mps 710 mmHg 35%
    15:00 +15°C° 0 mm 5 mps 710 mmHg 36%
    16:00 +15°C° 0 mm 5 mps 710 mmHg 37%
    17:00 +12°C° 0 mm 4 mps 711 mmHg 46%
    18:00 +10°C° 0 mm 4 mps 712 mmHg 55%
    19:00 +8°C° 0 mm 3 mps 713 mmHg 63%
    20:00 +7°C° 0 mm 3 mps 713 mmHg 69%
    21:00 +5°C° 0 mm 3 mps 714 mmHg 75%
    22:00 +4°C° 0 mm 3 mps 714 mmHg 81%
    23:00 +5°C° 0 mm 2 mps 714 mmHg 82%
    Show more